Powrót do katalogu

STARLINK-3575

AktywnyŁącznośćVLEO
NORAD 51878·PAYLOAD·🇺🇸 United States

Wystrzelony Mar 3, 2022 z Cape Canaveral Space Force Station

Loading…

Następne Przeloty (najbliższe 24 godziny)

TLE

ŚwieżeSource: CelesTrak SupGP

Epoka: Sep 14, 2026, 21:19 UTC

1 51878C 22022AC  26257.88868056  .00038987  00000+0  11155-2 0  2574
2 51878  53.1572 230.5060 0001298  94.6544 243.9480 15.35379061    13

Śledź STARLINK-3575 w czasie rzeczywistym z AllMySat

Download on the App Store